Погода в деревне Мулино

Россия / Нижегородская область     56°17′19″N   42°55′16″E
темп.,
°C
ветер,
м/с
пор.,
м/с
влажн.,
%
обл.,
%
осадки,
мм/ч
давл.,
гПа
погр.,
м
17 мая, пн
пн1700:00+14ююз01843 0.0 101511
03:00+13ссв118651 0.0 101511
06:00+16в238024 0.0 1016107
09:00+22в246413 0.0 1016530
12:00+26вюв344846 0.0 10161178
15:00+27вюв345241 0.0 10151216
18:00+25в366792 0.0 1015338
21:00+20вюв398747 0.0 1015171
18 мая, вт
вт1800:00+17вюв3694100 0.0 1015104
03:00+16вюв2389100 0.0 101546
06:00+18вюв3980100 0.1 1016232
09:00+22вюв5760100 0.1 1015388
12:00+26юв6849100 0.0 10151074
15:00+28вюв68445 0.0 10141600
18:00+25вюв5125643 0.0 1014646
21:00+20вюв514755 0.0 1014363
19 мая, ср
ср1900:00+19вюв415714 0.0 1014373
03:00+17вюв514840 0.0 1014334
06:00+18вюв5148025 0.0 1014404
09:00+23вюв611590 0.0 1014550
12:00+26вюв710510 0.0 1013965
15:00+27вюв710540 0.0 10131303
18:00+24вюв611630 0.0 10131024
21:00+20вюв514740 0.0 1013473
20 мая, чт
чт2000:00+17вюв515720 0.0 1013430
03:00+16вюв413790 0.0 1012362
06:00+17вюв514780 0.0 1012492
09:00+21юв711630 0.0 1012904
12:00+23юв8125799 0.0 10111580
15:00+23юв71265100 0.9 10101623
18:00+20юв7137289 1.7 10091309
21:00+14юв389589 2.4 1010260
21 мая, пт
пт2100:00+13юв389680 0.0 1009273
03:00+12юв3997100 0.0 1009309
06:00+13ююв499373 0.0 1010398
09:00+17ююз566612 0.0 1010889
12:00+20ю61053100 0.1 10101786
15:00+15ююз61283100 0.9 1010914
18:00+16ююз5117878 0.2 10101198
21:00+13ююз5128988 1.4 1010612